DW0331 Weather Reports


time (UTC)temp
C
wind
direction
speed
KPH
gust
KPH
rain 1hr
cm
rain 24hr
cm
rain mn
cm
humidity
%
barometer
mb
20260505193006 18 241 4.8 19.3 0.00 0.00 0.00 69 1001.4
20260505192005 18 263 6.4 29.0 0.00 0.00 0.00 70 1001.6
20260505191005 18 239 8.0 33.8 0.00 0.00 0.00 69 1001.4
20260505190006 18 240 14.5 38.6 0.00 0.00 0.00 67 1001.2
20260505185006 19 239 12.9 37.0 0.00 0.00 0.00 66 1001.0
20260505184014 19 236 19.3 49.9 0.00 0.00 0.00 65 1000.9
20260505183006 20 238 22.5 41.8 0.00 0.00 0.00 64 1000.8
20260505180006 20 229 20.9 48.3 0.00 0.00 0.00 63 1000.5
20260505175006 20 228 19.3 40.2 0.00 0.00 0.00 63 1000.5
20260505172007 19 228 22.5 46.7 0.00 0.00 0.00 66 1000.4
20260505170005 18 236 22.5 53.1 0.00 0.00 0.00 67 1000.6
20260505165006 19 236 25.7 49.9 0.00 0.00 0.00 67 1000.6
20260505163008 18 218 17.7 37.0 0.00 0.00 0.00 68 1000.2
20260505162005 18 212 24.1 37.0 0.00 0.00 0.00 69 1000.0
20260505161006 18 209 27.4 46.7 0.00 0.00 0.00 70 999.6
20260505153006 17 207 22.5 35.4 0.00 0.00 0.00 73 999.7
20260505152006 17 206 20.9 33.8 0.00 0.00 0.00 72 999.8
20260505151005 17 222 16.1 32.2 0.00 0.00 0.00 72 999.9
20260505125006 16 211 16.1 33.8 0.00 0.00 0.00 76 999.1
20260505124006 16 211 16.1 30.6 0.00 0.00 0.00 77 999.1
20260505123006 15 211 8.0 25.7 0.00 0.00 0.00 79 999.2
20260505122005 14 207 6.4 25.7 0.00 0.00 0.00 82 999.2
20260505121007 14 205 14.5 29.0 0.00 0.00 0.00 82 999.3
20260505120006 14 209 4.8 25.7 0.00 0.00 0.00 80 999.4
20260505115006 14 222 1.6 16.1 0.00 0.00 0.00 81 999.5
20260505114006 14 203 6.4 22.5 0.00 0.00 0.00 81 999.4
20260505113005 14 205 4.8 22.5 0.00 0.00 0.00 81 999.3
20260505112005 14 210 8.0 30.6 0.00 0.00 0.00 81 999.4
20260505102009 14 204 6.4 24.1 0.00 0.00 0.00 82 998.8
20260505101005 14 202 16.1 29.0 0.00 0.00 0.00 82 998.9
20260505100005 14 203 17.7 33.8 0.00 0.00 0.00 80 998.8
20260505095005 14 205 17.7 32.2 0.00 0.00 0.00 79 998.8
20260505094005 15 204 14.5 29.0 0.00 0.00 0.00 77 998.7
20260505093006 15 206 3.2 22.5 0.00 0.00 0.00 76 998.7
20260505092006 15 205 6.4 24.1 0.00 0.00 0.00 77 998.8
20260505091005 15 207 9.7 25.7 0.00 0.00 0.00 75 999.0
20260505090005 15 209 12.9 32.2 0.00 0.00 0.00 76 999.0
20260505085005 15 206 14.5 29.0 0.00 0.00 0.00 75 999.1
20260505084005 15 208 14.5 25.7 0.00 0.00 0.00 74 999.2
20260505083006 15 208 16.1 32.2 0.00 0.00 0.00 73 999.3
20260505082005 15 205 12.9 32.2 0.00 0.00 0.00 73 999.4
20260505081005 15 206 17.7 30.6 0.00 0.00 0.00 72 999.4
20260505080005 15 202 19.3 25.7 0.00 0.00 0.00 73 999.5
20260505075005 14 201 17.7 25.7 0.00 0.00 0.00 73 999.5
20260505074005 14 203 4.8 24.1 0.00 0.00 0.00 74 999.6
20260505073005 13 208 3.2 25.7 0.00 0.00 0.00 73 999.5
20260505072006 13 208 1.6 16.1 0.00 0.00 0.00 72 999.6
20260505071005 13 203 4.8 17.7 0.00 0.00 0.00 71 999.6
20260505070005 13 204 3.2 20.9 0.00 0.00 0.00 71 999.4
20260505065005 13 203 9.7 25.7 0.00 0.00 0.00 69 999.4
20260505064005 12 0 0.0 3.2 0.00 0.00 0.00 73 999.5
20260505062005 12 0 0.0 9.7 0.00 0.00 0.00 72 999.5
20260505061006 12 0 0.0 1.6 0.00 0.00 0.00 74 999.4
20260505053005 11 0 0.0 3.2 0.00 0.00 0.00 76 999.9
20260505052006 11 0 0.0 8.0 0.00 0.03 0.00 77 999.8
20260505051005 11 0 0.0 6.4 0.00 0.05 0.00 77 999.9
20260505041006 12 0 0.0 0.0 0.00 0.13 0.00 75 1000.4
20260505040006 12 0 0.0 1.6 0.00 0.13 0.00 73 1000.5
20260505035005 12 0 0.0 6.4 0.00 0.13 0.13 74 1000.5
20260505034005 12 0 0.0 6.4 0.00 0.13 0.13 72 1000.5
20260505033005 12 0 0.0 0.0 0.00 0.13 0.13 70 1000.6
20260505032005 13 0 0.0 0.0 0.00 0.13 0.13 72 1000.6
20260505031005 13 194 1.6 9.7 0.00 0.13 0.13 70 1000.6
20260505030005 13 0 0.0 8.0 0.00 0.13 0.13 70 1000.7
20260505025005 13 0 0.0 0.0 0.00 0.13 0.13 73 1000.8
20260505024005 13 0 0.0 0.0 0.00 0.13 0.13 73 1000.9
20260505023006 13 0 0.0 1.6 0.00 0.13 0.13 69 1000.9
20260505022005 13 0 0.0 3.2 0.00 0.13 0.13 71 1000.9
20260505021005 13 0 0.0 3.2 0.00 0.13 0.13 69 1000.8
20260505020005 14 0 0.0 3.2 0.00 0.13 0.13 69 1000.9
20260505015005 14 0 0.0 0.0 0.00 0.13 0.13 67 1000.9
20260505013005 15 0 0.0 3.2 0.00 0.13 0.13 66 1001.1
20260505011005 15 0 0.0 17.7 0.00 0.13 0.13 67 1001.1
20260505010005 15 202 1.6 9.7 0.00 0.13 0.13 67 1001.2
20260505005005 15 0 0.0 9.7 0.00 0.13 0.13 64 1001.1
20260505004004 16 0 0.0 9.7 0.00 0.13 0.13 64 1001.2
20260505003005 16 0 0.0 11.3 0.00 0.13 0.13 64 1001.2
20260505002006 16 0 0.0 11.3 0.00 0.13 0.13 64 1001.1
20260505001005 16 208 1.6 11.3 0.00 0.13 0.13 64 1001.0
20260505000005 16 205 3.2 16.1 0.00 0.13 0.13 61 1000.9
20260504235005 16 203 1.6 14.5 0.00 0.13 0.13 61 1000.8
20260504233005 17 0 0.0 1.6 0.00 0.13 0.13 61 1000.7
20260504231005 17 213 6.4 22.5 0.00 0.13 0.13 59 1000.7
20260504230006 17 209 9.7 22.5 0.00 0.13 0.13 59 1000.8
20260504225005 17 206 6.4 22.5 0.00 0.13 0.13 61 1000.8
20260504224005 17 204 16.1 24.1 0.00 0.13 0.13 58 1000.8
20260504223005 18 205 9.7 32.2 0.00 0.13 0.13 56 1000.8
20260504221005 18 208 16.1 27.4 0.00 0.13 0.13 57 1001.0
20260504220005 18 205 17.7 29.0 0.00 0.13 0.13 58 1001.1
20260504215006 18 209 19.3 35.4 0.00 0.13 0.13 56 1001.1
20260504214005 18 212 17.7 37.0 0.00 0.13 0.13 55 1001.1
20260504213005 18 213 20.9 40.2 0.00 0.13 0.13 56 1001.1
20260504212005 18 211 17.7 40.2 0.00 0.13 0.13 55 1001.0
20260504211005 18 212 22.5 35.4 0.00 0.13 0.13 55 1001.0
20260504210005 18 207 25.7 41.8 0.00 0.13 0.13 57 1001.1
20260504205006 18 208 24.1 49.9 0.00 0.13 0.13 55 1001.3
20260504204005 18 206 20.9 37.0 0.00 0.13 0.13 56 1001.3
20260504203005 18 211 19.3 38.6 0.00 0.13 0.13 57 1001.4
20260504202005 17 212 22.5 37.0 0.00 0.13 0.13 56 1001.5
20260504201005 17 207 25.7 45.1 0.00 0.13 0.13 56 1001.4
20260504200005 17 209 24.1 40.2 0.00 0.13 0.13 56 1001.7
20260504194005 17 207 25.7 45.1 0.00 0.13 0.13 56 1001.8